Location: Newark
(29.9790°N, 31.1340°E)
Time: 21:07:28
(UTC+00:00)

Tiros 1 - Pass Details

Date: 24 January 2020
Orbit: 631 x 664 km, 48.4° (Epoch: 23 February)

Event Time Altitude Azimuth Distance (km) Brightness Sun altitude
Rises 15:43:40 0° 323° (NW) 2,975 10.8 -4.6°
Reaches altitude 10° 15:46:51 10° 345° (NNW) 2,068 9.7 -5.2°
Maximum altitude 15:49:50 16° 24° (NNE) 1,691 8.9 -5.8°
Drops below altitude 10° 15:52:50 10° 63° (ENE) 2,074 9.1 -6.4°
Enters shadow 15:53:31 - 69° (ENE) 2,246 9.2 -6.6°
